Notices

What's New in latest Release from April 7th, 2021:

- Updated Glossary, including Speed of Maximum Gust, and Total Hourly Precipitation

- Updated national and regional climate services offices contacts and prices information

- Addition of station inventory lists for 1981-2010, 1971-2000, and 1961-1990 Normals.

If you haven't already, please take our survey and provide feedback about our website: https://eccc.sondage-survey.ca/f/LanguageSelection.aspx?s=442ca660-fcf1-47c0-95a9-59707d6fd709

Hourly Data Report for August 31, 2015

IQALUIT CLIMATE
NUNAVUT

63°44'50.000" N
68°32'40.000" W
33.50 m
2402592
71321
XFB

Download Data

Hourly Data (August 2015)
Hourly Data Report for August 31, 2015
TIME
LST
Temp Definition
°C
Dew Point Definition
°C
Rel Hum Definition
%
Precip. Amount Definition
mm

Wind Dir Definition
10's deg

Wind Spd Definition
km/h
Visibility Definition
km
Stn Press Definition
kPa
Hmdx Definition


Wind Chill Definition


Weather Definition


00:00 5.0 3.3 89 0.0 33 21   100.81     LegendNANA
01:00 4.9 3.1 88 0.0 35 26   100.83     LegendNANA
02:00 4.7 3.5 92 0.0 34 27   100.86     LegendNANA
03:00 4.6 3.4 92 0.0 34 29   100.90     LegendNANA
04:00 4.3 3.1 91 0.0 34 25   100.97     LegendNANA
05:00 4.5 3.3 92 0.0 32 25   101.01     LegendNANA
06:00 4.7 2.9 88 0.0 33 30   101.04     LegendNANA
07:00 4.6 2.6 87 0.0 34 25   101.08     LegendNANA
08:00 5.1 2.6 84 0.0 33 26   101.10     LegendNANA
09:00 5.5 2.5 81 0.0 34 23   101.15     LegendNANA
10:00 7.1 3.1 76 0.0 32 23   101.15     LegendNANA
11:00 8.1 3.2 71 0.0 32 24   101.15     LegendNANA
12:00 10.3 4.3 66 0.0 32 24   101.14     LegendNANA
13:00 10.7 3.7 62 0.0 33 24   101.16     LegendNANA
14:00 11.2 3.7 60 0.0 33 26   101.15     LegendNANA
15:00 11.7 3.4 57 0.0 32 21   101.18     LegendNANA
16:00 11.5 2.9 55 0.0 32 21   101.20     LegendNANA
17:00 10.8 2.5 57 0.0 32 23   101.23     LegendNANA
18:00 10.1 2.5 59 0.0 33 22   101.27     LegendNANA
19:00 8.1 2.2 66 0.0 33 19   101.31     LegendNANA
20:00 7.6 2.2 69 0.0 34 22   101.32     LegendNANA
21:00 LegendMM 1.9 84 0.0 16 15   101.37     LegendNANA
22:00 LegendMM 1.4 89 0.0 12 3   101.38     LegendNANA
23:00 3.0 1.8 92 0.0 22 2   101.39     LegendNANA

Notes on Data Quality.

Legend

  • E = Estimated
  • M = Missing
  • NA = Not Available*
  • [empty] = Indicates an unobserved value
Date modified: